Main page
METAR-TAF:

METAR-TAF

Airports :

Khorramabad Airport

Khorramabad, Iran

latitude: 33-26-11N, longitude: 048-17-09E, elevation: 1155 m

Current weather observation

The report was made 13 hours and 12 minutes ago, at 12:30 UTC
Wind 8 kt from the Southwest
Temperature 35°C
Humidity 9%
Pressure 1010 hPa
Visibility 10 km or more
no clouds below 1500 m and no cumulonimbus

METAR: OICK 191230Z 22008KT CAVOK 35/M02 Q1010

Time: 06:12 (01:42 UTC)


TAF: missing

Weather observations and forecasts of more than 4000 airports (METAR and TAF reports).

The available stations are represented by yellow and red dots on the map.

Hover mouse over dot to see the name of the station.

Then click to see weather observations and forecasts.

To change the map : click on the green buttons with a black cross to zoom in, on the green button with a dash to zoom out, or on the green arrows for adjacent maps.


METAR-TAF: